Regional Weather Roundup
Issued by NWS

Home | Current Version | Previous Version | Graphics & Text | Print | Product List | Glossary On
Versions: 1 2 3 4 5 6 7 8 9 10 11 12 13 14 15 16 17 18 19 20 21 22 23 24 25 26 27 28 29 30 31 32 33 34 35 36 37 38 39 40 41 42 43 44 45 46 47 48 49 50
000
ASUS43 KMPX 292301
RWRMN
WEATHER ROUNDUP FOR MINNESOTA
NATIONAL WEATHER SERVICE TWIN CITIES/CHANHASSEN MN
600 PM CDT FRI AUG 29 2014


NOTE: "FAIR" INDICATES FEW OR NO CLOUDS BELOW 12,000 FEET WITH NO
SIGNIFICANT WEATHER AND/OR OBSTRUCTIONS TO VISIBILITY. N/A MEANS
CURRENT SKY AND/OR WEATHER CONDITIONS ARE NOT AVAILABLE.

MNZ060>063-068>070-300000-
   Twin Cities Metro

CITY           SKY/WX    TMP DP  RH WIND       PRES   REMARKS
TWIN CITIES    LGT RAIN  70  68  93 NW6       29.74R
ST PAUL        LGT RAIN  71  65  81 NW7G24    29.74R
CRYSTAL        CLOUDY    72  68  87 S3        29.73R
BLAINE         CLOUDY    72  72 100 CALM      29.74S
LAKEVILLE      PTSUNNY   75  70  83 W6        29.74R
EDEN PRAIRIE   LGT RAIN  74  72  93 CALM      29.72S
SOUTH ST PAUL  CLOUDY    75  64  69 NW7       29.73R
LAKE ELMO      CLOUDY    68  64  88 NE3       29.75R
$$
MNZ001>005-007-008-013>017-022>024-027-028-300000-
   Northwest Minnesota

CITY           SKY/WX    TMP DP  RH WIND       PRES   REMARKS
BEMIDJI        CLOUDY    71  65  83 SW3       29.77R
HALLOCK        PTSUNNY   61  55  82 N17G23    29.83R
ROSEAU         PTSUNNY   61  55  82 N15       29.80R
WARROAD        CLOUDY    64  61  88 N10       29.80R
THIEF RVR FALL PTSUNNY   72  63  73 N8        29.77F
CROOKSTON      LGT RAIN  68  66  94 N15       29.78R
FOSSTON        CLOUDY    66  63  88 W5        29.79R
DETROIT LAKES  CLOUDY    68  64  88 NW7       29.79F
MOORHEAD       PTSUNNY   73  70  88 SE3       29.77S
PARK RAPIDS    CLOUDY    73  65  75 W7        29.77S
MAHNOMEN       CLOUDY    67  65  92 CALM      29.78S
$$
MNZ006-009>011-018-025>026-300000-
   North Central Minnesota

CITY           SKY/WX    TMP DP  RH WIND       PRES   REMARKS
BAUDETTE       CLOUDY    67  64  90 NW9       29.76R
FLAG ISLAND    CLOUDY    63  57  82 N18       29.80R
INTL FALLS     CLOUDY    70  62  76 S3        29.76R
WASKISH        PTSUNNY   70  66  88 CALM      29.76S
BIG FORK       CLOUDY    66  63  88 CALM      29.77F
LONGVILLE      CLOUDY    68  64  88 CALM      29.76S
GRAND RAPIDS   CLOUDY    66  61  82 NW6       29.77S
CRANE LAKE     CLOUDY    64  61  88 CALM      29.78S
ORR            CLOUDY    64  59  82 CALM      29.75R
COOK           CLOUDY    64  61  88 CALM      29.77S
WALKER         CLOUDY    68  65  90 CALM      29.76S
$$
MNZ012-019>021-037-300000-
   Northeast Minnesota

CITY           SKY/WX    TMP DP  RH WIND       PRES   REMARKS
DULUTH         LGT RAIN  64  61  90 SE5       29.76S FOG
ELY            CLOUDY    63  59  88 CALM      29.77S
HIBBING        CLOUDY    67  62  84 N3        29.77R
EVELETH        CLOUDY    63  61  94 CALM      29.77S
DULUTH HARBOR  CLOUDY    63  61  94 E8        29.76S FOG
TWO HARBORS    CLOUDY    63  57  82 E5        29.75R HAZE
SILVER BAY     CLOUDY    61  61 100 E3        29.76R
GRAND MARAIS     N/A     60  59  96 NE5       29.75F
G MARAIS ARPRT FOG       57  55  94 CALM      29.79S VSB 1
$$
MNZ029>031-032-039>041-046>048-054>057-064-300000-
   West Central Minnesota

CITY           SKY/WX    TMP DP  RH WIND       PRES   REMARKS
FERGUS FALLS   CLOUDY    70  64  83 CALM      29.77S
WHEATON        MOSUNNY   72  64  78 N6        29.78S
MORRIS         PTSUNNY   73  66  78 N8        29.77R
ALEXANDRIA     CLOUDY    71  66  84 NW9       29.79S
ELBOW LAKE     CLOUDY    69  66  89 NW8       29.77F
WADENA         CLOUDY    70  66  88 W5        29.77S
GLENWOOD       CLOUDY    73  66  78 NW8       29.78S
APPLETON       CLOUDY    75  66  73 NW5       29.76S
BENSON         CLOUDY    75  66  73 N5        29.76S
ORTONVILLE     CLOUDY    77  66  69 NE6       29.76S
MADISON        CLOUDY    77  68  73 N3        29.76S
WILLMAR        FAIR      72  68  88 CALM      29.78R
$$
MNZ033>034-036-042>043-049>051-058-059-300000-
   Central Minnesota

CITY           SKY/WX    TMP DP  RH WIND       PRES   REMARKS
ST CLOUD       CLOUDY    74  67  78 N3        29.75R
SAUK CENTRE    CLOUDY    72  66  82 W5        29.77R
PAYNESVILLE    HVY RAIN  69  67  92 CALM      29.77R
AITKIN         CLOUDY    72  64  78 CALM      29.75S
PINE RIVER     CLOUDY    68  66  94 CALM      29.80S
BRAINERD       CLOUDY    69  65  86 NW3       29.77R
STAPLES        CLOUDY    70  64  83 NW5       29.76F
LONG PRAIRIE   CLOUDY    70  64  83 W6        29.77S
LITTLE FALLS   CLOUDY    70  64  83 W3        29.77R
LITCHFIELD     CLOUDY    72  72 100 CALM      29.76S
BUFFALO        LGT RAIN  71  68  90 CALM      29.75S
MAPLE LAKE     DRIZZLE   71  70  96 CALM      29.76R
$$
MNZ037-044-045-052-053-300000-
   East Central Minnesota

CITY           SKY/WX    TMP DP  RH WIND       PRES   REMARKS
PRINCETON      DRIZZLE   72  68  88 CALM      29.75R
MORA           CLOUDY    64  64 100 CALM      29.76R
CAMBRIDGE      CLOUDY    72  64  78 CALM      29.73S
RUSH CITY      CLOUDY    70  67  89 CALM      29.75R
MOOSE LAKE     CLOUDY    68  64  88 NW3       29.74R
HINCKLEY       CLOUDY    70  68  94 W3        29.75R
CLOQUET        CLOUDY    64  63  94 NE3       29.76S
MCGREGOR       CLOUDY    68  64  88 N6        29.77R
$$
MNZ071>073-080-081-089-090-097-098-300000-
   Southwest Minnesota

CITY           SKY/WX    TMP DP  RH WIND       PRES   REMARKS
MONTEVIDEO     CLOUDY    75  73  94 CALM      29.76F
GRANITE FALLS  CLOUDY    72  70  94 CALM      29.78S
CANBY          CLOUDY    74  68  79 CALM      29.78S
MARSHALL       CLOUDY    70  66  88 CALM      29.77S
REDWOOD FALLS  RAIN      67  66  97 W7        29.76S FOG
OLIVIA         RAIN      70  68  94 CALM      29.76S
PIPESTONE      CLOUDY    68  64  88 CALM      29.79S
WINDOM         LGT RAIN  70  64  83 N6        29.80R
WORTHINGTON    CLOUDY    70  68  94 S6        29.80R
JACKSON        DRIZZLE   70  64  83 NW5       29.80R
TRACY          LGT RAIN  69  67  93 CALM      29.79R
SLAYTON        DRIZZLE   67  65  91 CALM      29.80F
$$
MNZ065>067-074>077-082>085-091>093-300000-
   South Central Minnesota

CITY           SKY/WX    TMP DP  RH WIND       PRES   REMARKS
MANKATO        CLOUDY    75  66  73 SW9       29.76R
NEW ULM        LGT RAIN  70  68  94 CALM      29.77R
ST JAMES       CLOUDY    75  70  83 SW7       29.78R
FAIRMONT       CLOUDY    72  64  78 W6        29.78R
GLENCOE        LGT RAIN  70  64  83 CALM      29.75R
FARIBAULT      PTSUNNY   79  66  65 SW5       29.76R
OWATONNA       CLOUDY    75  70  83 SW5       29.77R
WASECA         CLOUDY    73  64  73 SW7       29.78S
ALBERT LEA     CLOUDY    75  70  83 W6        29.77S
$$
MNZ078>079-086>088-094>096-300000-
   Southeast Minnesota

CITY           SKY/WX    TMP DP  RH WIND       PRES   REMARKS
ROCHESTER      MOSUNNY   77  69  76 W6        29.77R
RED WING       PTSUNNY   73  70  88 NE5       29.73R
STANTON        MOSUNNY   78  69  73 SW9       29.74R
DODGE CENTER   PTSUNNY   77  72  83 SW9       29.77R
WINONA         PTSUNNY   70  66  88 CALM      29.75F
AUSTIN         CLOUDY    77  66  69 NW12      29.77R
PRESTON          N/A     74  74 100 CALM      29.77S THUNDER
$$
ABBREVIATIONS USED IN REMARKS
   TC - TEMPERATURES IN CELSIUS
  WCI - WIND CHILL INDEX
   HX - HEAT INDEX
  VSB - VISIBILITY
$$


USA.gov is the U.S. government's official web portal to all federal, state and local government web resources and services.